Location: Ladrillo (historical)
(32.8195°N, 117.2231°W)
Time: 19:17:15
(UTC+00:00)

NOAA 18 - Pass Details

Date: 24 April 2021
Orbit: 840 x 861 km, 99.0° (Epoch: 05 May)

Event Time Altitude Azimuth Distance (km) Brightness Sun altitude
Exits shadow 06:26:04 15° 289° (WNW) 2,130 7.6 -40.3°
Drops below altitude 10° 06:27:45 10° 306° (NW) 2,461 8.2 -40.5°
Sets 06:30:59 0° 326° (NW) 3,398 9.2 -40.7°
